SCP
-0 0 0 0 0 0 0 0 0 0 0 0 0 0 0 0 0 0 0 0 0 0 0 0 0 0 0 0 0 0 0 0 0 0 0 0 0 0 0 0 0 0 0 0 0 0 0 0 0
0 0 0 0 0 0 0 0 0 0 0 0 0 0 0 0 0 0 0 0 0 0 0 0 0 0 0 0 0 0 0 0 0 0 0 0 0 0 0 0 0 0 0 0 0 0 0 0 0
0 0 0 0 0 0 0 0 0 0 0 0 0 0 0 0 0 0 0 0 0 0 0 0 0 1 1 0 0 0 0 0 0 0 0 0 0 0 0 0 0 0 0 0 0 0 0 0 0
0 0 0 0 0 0 0 0 0 0 0 0 0 0 0 0 0 0 0 0 0 0 0 0 1 1 1 1 1 0 0 0 0 0 0 0 0 0 0 0 0 0 0 0 0 0 0 0 0
0 0 0 0 0 0 0 0 0 0 0 0 0 0 0 0 0 0 0 0 0 0 0 0 1 1 1 1 1 1 1 1 1 0 0 0 0 0 0 0 0 0 0 0 0 0 0 0 0
0 0 0 0 0 0 0 0 0 0 0 0 0 0 0 0 0 0 0 0 0 0 0 0 0 0 1 1 1 1 1 1 1 0 0 0 0 0 0 0 0 0 0 0 0 0 0 0 0
0 0 0 0 0 0 0 0 0 0 0 0 0 0 0 0 0 0 0 0 0 0 0 0 0 0 0 0 0 0 1 1 0 0 0 0 0 0 0 0 0 0 0 0 0 0 0 0 0
0 0 0 0 0 0 0 0 0 0 0 0 0 0 0 0 0 0 0 0 0 0 0 0 0 0 0 0 0 0 0 0 0 0 0 0 0 0 0 0 0 0 0 0 0 0 0 0 0
0 0 0 0 0 0 0 0 0 0 0 0 0 0 0 0 0 0 0 0 0 0 0 0 0 0 0 0 0 0 0 0 0 0 0 0 0 0 0 0 0 0 0 0 0 0 0 0 0
0 0 0 0 0 0 0 0 0 0 0 0 0 0 0 0 0 0 0 0 0 0 0 0 0 0 0 0 0 0 0 0 0 0 0 0 0 0 0 0 0 0 0 0 0 0 0 0 0
0 0 0 0 0 0 0 0 0 0 0 0 0 0 0 0 0 0 0 0 0 0 0 0 0 0 0 0 0 0 0 0 0 0 0 0 0 0 0 0 0 0 0 0 0 0 0 0 0
0 0 0 0 0 0 0 0 0 0 0 0 0 0 0 0 0 0 0 0 0 0 0 0 0 0 0 0 0 0 0 0 0 0 0 0 0 0 0 0 0 0 0 0 0 0 0 0 0
0 0 0 0 0 0 0 0 0 0 0 0 0 0 0 0 0 0 0 0 0 0 0 0 0 0 0 0 0 0 0 0 0 0 0 0 0 0 0 0 0 0 0 0 0 0 0 0 0
0 0 0 0 0 0 0 0 0 0 0 0 0 0 0 0 0 0 0 0 0 0 0 0 0 0 0 0 0 0 0 0 0 0 0 0 0 0 0 0 0 0 0 0 0 0 0 0 0
0 0 0 0 0 0 0 0 0 0 0 0 0 0 0 0 0 0 0 0 0 0 0 0 0 0 0 0 0 0 0 0 0 0 0 0 0 0 0 0 0 0 0 0 0 0 0 0 0
0 0 0 0 0 0 0 0 0 0 0 0 0 0 0 0 0 0 0 0 0 0 0 0 0 0 0 0 0 0 0 0 0 0 0 0 0 0 0 0 0 0 0 0 0 0 0 0 0
0 0 0 0 0 0 0 0 0 0 0 0 0 0 0 0 0 0 0 0 0 0 0 0 0 0 0 0 0 0 0 0 0 0 0 0 0 0 0 0 0 0 0 0 0 0 0 0 0
0 0 0 0 0 0 0 0 0 0 0 0 0 0 0 0 0 0 0 0 0 0 0 0 0 0 0 0 0 0 0 0 0 0 0 0 0 0 0 0 0 0 0 0 0 0 0 0 0
0 0 0 0 0 0 0 0 0 0 0 0 0 0 0 0 0 0 0 0 0 0 0 0 0 0 0 0 0 0 0 0 0 0 0 0 0 0 0 0 0 0 0 0 0 0 0 0 0
0 0 0 0 0 0 0 0 0 0 0 0 0 0 0 0 0 0 0 0 0 0 0 0 0 0 0 0 0 0 0 0 0 0 0 0 0 0 0 0 0 0 0 0 0 0 0 0 0
0 0 0 0 0 0 0 0 0 0 0 0 0 0 0 0 0 0 0 0 0 0 0 0 0 0 0 0 0 0 0 0 0 0 0 0 0 0 0 0 0 0 0 0 0 0 0 0 0
0 0 0 0 0 0 0 -0 0 0 0 0 0 0 0 0 0 0 0 0 0 0 0 0 0 0 0 0 0 0 0 0 0 0 0 0 0 0 0 0 0 0 0 0 0 0 0 0 0
0 0 0 0 0 0 0 0 0 0 0 0 0 0 0 0 0 0 0 0 0 0 0 0 0 0 0 0 0 0 0 0 0 0 0 0 0 0 0 0 0 0 0 0 0 0 0 0 0
0 0 0 0 0 0 0 0 0 0 0 0 0 0 0 0 0 0 0 0 0 0 0 0 0 0 0 0 0 0 0 0 0 0 0 0 0 0 0 0 0 0 0 0 0 0 0 0 0
0 0 0 0 0 0 0 0 0 0 0 0 0 0 0 0 0 0 0 0 0 0 0 0 0 0 0 0 0 0 0 0 0 0 0 0 0 0 0 0 0 0 0 0 0 0 0 0 0
0 0 0 0 0 0 0 0 0 0 0 0 0 0 0 0 0 0 0 0 0 0 0 0 0 0 0 0 0 0 0 0 0 0 0 0 0 0 0 0 0 0 0 0 0 0 0 0 0
0 0 0 0 0 0 0 0 0 0 0 0 0 0 0 0 0 0 0 0 0 0 0 0 0 0 0 0 0 0 0 0 0 0 0 0 0 0 0 0 0 0 0 0 0 0 0 0 0
0 0 0 0 0 0 0 0 0 0 0 0 0 0 0 0 0 0 0 0 0 0 0 0 0 0 0 0 0 0 0 0 0 0 0 0 0 0 0 0 0 0 0 0 0 0 0 0 0
0 0 0 0 0 0 0 0 0 0 0 0 0 0 0 0 0 0 0 0 0 0 0 0 0 0 0 0 0 0 0 0 0 0 0 0 0 0 0 0 0 0 0 0 0 0 0 0 0
0 0 0 0 0 0 0 0 0 0 0 0 0 0 0 0 0 0 0 0 0 0 0 0 0 0 0 0 0 0 0 0 0 0 0 0 0 0 0 0 0 0 0 0 0 0 0 0 0
Wind_Speed
2 2 3 3 4 4 4 2 2 2 2 1 1 3 4 5 6 6 4 4 7 12 15 16 13 15 15 13 11 11 10 11 12 12 11 10 10 9 9 9 10 11 11 11 10 9 8 8 8
2 2 2 3 4 4 1 1 2 2 2 2 3 4 5 7 5 5 0 6 8 12 13 14 13 14 14 14 13 12 10 10 11 12 12 12 10 9 8 7 8 9 9 9 9 8 8 8 8
2 2 2 2 3 4 4 1 2 3 4 4 4 5 5 4 2 2 1 8 9 11 12 11 10 13 14 14 14 14 12 12 11 13 13 12 10 8 6 5 6 7 8 8 8 8 8 8 9
2 2 1 3 6 6 6 7 7 8 3 4 4 5 5 4 2 1 3 10 11 12 12 11 10 13 13 13 14 14 14 13 14 14 13 10 9 7 6 5 6 7 8 8 8 8 8 8 9
1 2 2 4 5 5 6 7 5 5 3 3 3 5 5 3 2 2 5 11 12 13 12 12 11 11 11 12 13 14 14 15 15 14 12 10 9 8 7 7 7 8 8 8 9 9 8 8 8
2 2 3 4 4 5 6 4 4 4 3 3 4 5 5 3 4 4 5 10 10 12 12 12 12 10 10 10 11 11 13 14 14 12 11 10 10 9 9 9 9 9 8 9 9 9 8 9 9
3 3 3 4 5 5 2 2 4 3 4 4 4 5 5 4 3 3 5 9 9 11 12 12 14 13 11 11 11 10 11 12 12 12 11 10 10 11 10 9 9 10 10 10 9 9 8 8 8
1 3 3 4 5 4 2 3 4 5 7 0 4 7 6 3 3 3 5 8 10 11 12 13 13 14 14 14 12 11 11 11 12 11 11 11 10 10 9 8 10 11 10 10 9 9 8 8 8
3 4 5 5 6 5 4 5 4 4 7 5 8 10 6 4 3 4 6 8 10 12 13 14 14 14 13 13 12 12 11 11 12 11 12 12 11 11 9 10 9 11 11 10 10 9 9 8 8
5 6 7 5 5 5 4 6 6 6 11 10 10 12 9 6 7 9 11 13 15 17 17 14 15 15 14 11 10 11 11 12 13 12 14 12 10 8 8 7 7 9 10 10 10 9 8 4 4
7 9 6 7 8 6 7 8 6 8 13 14 14 13 10 10 11 13 15 16 16 15 16 16 16 15 15 11 10 8 8 9 13 15 15 11 10 8 7 6 8 9 10 8 8 7 4 3 3
8 10 9 7 5 6 8 8 8 12 17 18 17 15 15 14 15 15 16 16 14 14 15 16 16 15 16 14 11 11 9 9 10 13 15 12 9 9 9 7 8 8 6 7 6 4 5 4 4
10 9 9 11 10 11 11 16 15 19 23 22 17 14 16 17 17 16 15 15 14 16 16 16 17 18 16 15 12 12 12 12 12 11 13 14 11 11 10 8 8 9 7 7 6 6 6 5 4
5 8 10 9 11 7 12 21 15 20 17 15 14 15 14 14 16 15 14 16 16 17 18 17 19 20 19 16 14 13 13 12 13 12 15 17 12 11 11 10 10 9 8 7 6 7 6 5 4
4 9 16 14 11 7 7 14 14 16 10 13 16 17 16 17 16 16 15 14 16 17 17 18 19 20 21 20 19 14 13 13 13 13 16 17 14 13 12 11 10 9 8 8 6 7 5 5 4
3 7 11 8 4 5 8 15 16 6 7 15 19 21 21 22 21 17 14 14 16 16 16 17 15 19 21 19 18 14 13 14 13 13 13 17 16 14 12 10 10 9 8 8 8 7 6 5 5
7 9 12 13 3 6 10 14 18 13 13 21 22 22 22 22 21 16 14 13 15 15 15 15 17 19 20 19 15 15 13 14 12 13 13 16 17 16 13 10 10 11 9 8 8 7 6 6 6
13 15 14 16 7 4 10 16 20 23 22 24 23 21 19 16 15 14 14 14 13 12 11 13 14 17 16 14 13 12 14 13 13 13 14 17 16 18 15 11 12 12 10 9 9 9 6 6 7
14 15 20 21 19 13 18 20 18 21 22 22 21 17 12 11 11 13 14 15 14 12 10 9 11 12 12 11 12 12 13 12 12 12 15 17 17 18 16 12 13 13 12 12 12 9 10 7 8
12 16 20 19 11 7 14 19 18 18 17 18 17 13 12 11 12 15 17 18 18 16 14 10 8 9 12 10 10 10 10 10 11 10 12 15 16 17 15 16 13 14 12 14 14 12 8 6 8
13 14 15 16 13 8 10 12 6 9 14 16 11 6 6 10 13 16 17 18 19 19 18 13 9 6 9 10 7 6 7 6 8 10 10 13 15 16 16 17 16 16 15 14 16 15 14 9 9
13 10 12 12 10 9 6 15 8 10 16 11 3 6 12 14 15 16 18 19 21 20 18 17 13 7 4 7 8 10 8 9 9 8 9 12 15 16 16 16 17 16 14 15 16 15 13 12 11
8 3 3 5 8 11 6 11 8 7 11 4 8 12 15 16 17 19 20 20 20 20 18 18 16 12 7 4 7 9 10 8 6 7 10 12 12 15 16 16 15 15 14 15 16 16 15 12 11
2 1 2 2 5 13 7 10 9 7 6 5 12 14 16 16 17 18 18 19 19 20 19 18 18 16 12 6 5 8 10 10 9 8 8 9 8 11 15 15 15 15 14 16 16 16 18 14 13
4 4 8 8 6 11 2 8 9 7 5 10 12 13 15 16 17 18 19 20 20 21 21 20 20 19 16 12 8 8 9 10 11 10 9 9 9 10 14 15 15 15 15 16 15 15 16 17 16
6 6 8 11 15 19 4 11 5 3 11 13 12 12 14 16 15 16 17 17 17 19 19 19 20 19 18 16 12 9 9 8 8 10 9 9 9 10 12 15 16 16 16 15 15 13 15 14 15
5 9 10 11 13 18 18 15 6 5 9 10 11 12 13 13 13 13 14 15 16 17 18 18 18 18 18 17 16 14 11 9 10 10 10 9 9 8 12 14 16 16 16 15 15 12 15 13 14
8 5 4 8 11 20 25 29 22 9 4 6 9 10 10 10 11 11 12 13 13 14 15 16 16 16 16 16 14 12 14 13 11 9 10 11 11 10 11 12 14 15 15 16 16 14 15 15 15
11 9 12 12 12 15 21 20 6 6 7 6 7 7 9 10 10 10 10 10 11 12 13 14 15 16 15 15 14 14 14 14 13 10 11 11 10 10 11 12 13 15 16 16 16 17 17 18 16
14 16 17 16 17 16 16 11 6 8 6 6 5 4 5 7 8 9 9 9 10 11 11 12 13 13 14 14 14 13 14 14 14 14 13 12 11 11 11 12 13 14 15 16 18 18 17 18 19
Wind_Direction
35 2 285 259 260 259 273 269 270 284 263 289 229 240 270 277 286 326 55 158 171 167 170 171 177 175 175 174 171 165 163 161 158 152 149 143 132 118 104 100 106 107 101 97 91 85 80 77 74
24 320 260 272 280 283 327 266 249 310 332 274 220 229 250 257 266 301 170 170 178 174 174 178 174 178 177 176 173 173 177 175 167 160 152 142 133 123 116 109 105 103 100 96 93 93 90 82 73
107 333 299 272 271 298 343 22 316 314 283 258 244 234 262 265 217 262 65 165 176 177 181 175 173 183 182 179 176 178 184 184 173 155 145 139 132 126 127 128 117 111 107 105 102 102 99 92 83
198 172 191 262 267 273 277 300 309 297 263 229 267 255 238 244 247 54 147 171 177 179 183 175 177 182 185 185 185 185 186 183 168 155 149 145 142 141 148 157 141 131 128 126 123 117 106 97 89
193 196 219 251 267 265 268 297 286 278 275 210 243 270 263 189 198 190 174 179 183 179 184 182 182 181 182 187 192 192 189 179 168 164 162 160 159 162 172 172 157 147 140 137 132 122 115 108 98
158 197 234 268 274 274 272 265 261 263 266 231 232 259 269 156 201 204 188 191 193 186 187 189 186 190 183 185 189 187 183 175 172 171 170 172 175 179 181 178 167 159 154 146 136 131 127 118 110
205 211 249 266 282 280 257 209 247 280 271 239 219 249 259 194 184 183 190 196 200 195 195 197 196 197 194 190 188 186 179 176 176 177 176 177 176 180 182 180 177 172 163 150 144 138 129 121 112
238 221 221 239 253 265 221 213 244 260 291 202 216 243 262 118 108 167 185 198 204 205 206 205 205 204 203 200 196 195 187 181 179 179 174 164 166 176 177 180 184 177 164 155 146 137 127 116 105
217 229 235 231 233 250 218 232 228 248 266 238 228 246 291 87 150 189 194 204 210 214 212 210 209 210 210 208 201 201 194 188 180 180 163 163 182 185 181 188 185 177 163 158 149 139 124 116 105
209 234 238 225 229 260 253 257 275 253 260 260 249 248 245 231 230 231 223 215 211 212 210 209 210 209 209 206 204 208 205 200 198 194 182 185 186 182 182 172 196 165 155 159 153 139 133 144 129
215 236 241 233 239 259 270 268 250 256 270 268 275 285 272 243 241 241 241 236 227 219 208 209 210 208 206 202 202 203 203 203 201 195 187 182 178 174 183 178 176 165 163 164 151 153 165 156 132
227 241 243 245 220 226 254 271 258 243 261 278 285 289 285 266 253 247 250 247 240 231 218 209 208 209 208 205 201 200 199 200 197 193 186 182 180 181 181 182 179 174 172 163 161 164 155 141 126
233 257 250 250 241 247 261 261 268 264 266 277 283 276 266 266 263 258 253 255 245 237 229 216 207 208 207 208 206 204 201 200 198 193 192 190 185 185 183 181 180 180 174 171 166 163 157 153 144
272 271 276 264 252 242 247 266 266 266 276 286 283 278 274 268 265 266 255 247 241 236 230 218 211 209 206 206 207 207 205 201 200 195 195 194 190 187 185 183 183 182 179 173 170 164 162 157 147
305 290 284 263 246 245 234 266 251 265 292 288 292 294 293 284 278 271 269 258 247 239 232 221 215 209 209 208 209 207 206 203 201 199 197 196 194 190 186 185 185 182 174 166 163 160 159 152 149
254 258 273 274 207 188 208 270 290 331 304 297 299 297 293 288 287 290 284 265 258 251 238 226 215 212 212 211 211 208 206 205 204 201 198 198 196 191 187 185 186 177 172 172 169 165 160 160 164
235 257 270 291 225 177 218 272 296 307 296 292 290 286 283 287 297 310 307 290 277 265 248 231 217 214 213 213 214 213 209 207 207 204 200 198 195 192 189 188 181 174 175 179 173 171 165 165 158
269 273 275 280 281 224 253 272 287 292 288 283 282 279 281 295 312 328 330 326 315 299 273 244 225 218 213 210 215 217 215 211 211 209 204 197 194 191 189 186 179 175 175 179 179 168 162 153 142
282 282 280 281 286 291 284 287 288 283 283 280 276 279 302 321 335 353 357 355 349 341 318 277 244 223 209 203 206 211 215 214 215 215 210 203 196 191 190 184 179 180 182 183 179 166 160 154 152
256 267 276 284 296 285 288 289 284 274 268 267 276 304 325 337 6 16 12 8 5 1 352 329 281 242 220 213 207 210 214 219 220 219 218 213 205 196 193 187 183 184 184 185 184 175 171 162 182
249 254 271 282 308 277 294 289 257 265 261 265 279 309 1 22 24 23 21 17 13 9 360 350 330 276 236 225 222 216 216 223 215 216 217 218 217 208 202 195 188 188 187 188 188 187 179 174 188
262 257 260 277 293 298 331 301 274 257 271 275 327 57 52 42 37 31 26 23 20 12 7 7 3 346 269 223 219 218 221 226 223 216 214 212 217 218 213 206 198 193 193 191 190 191 191 183 181
243 331 272 268 277 285 244 266 298 218 263 292 63 58 49 43 38 32 28 26 23 18 17 16 19 18 359 260 231 230 237 246 251 234 223 214 210 217 217 215 208 200 199 196 189 190 194 196 191
215 288 261 230 265 278 266 237 294 203 235 73 63 48 43 40 38 34 30 29 27 26 26 24 25 24 13 346 283 255 252 253 254 246 236 221 211 214 217 217 213 207 204 200 195 193 197 200 201
179 265 290 279 262 275 109 243 264 226 46 60 60 48 41 38 35 30 27 27 26 26 26 26 28 25 18 8 340 302 278 267 260 253 241 227 216 213 214 213 216 213 210 204 200 199 202 202 203
189 218 252 277 279 285 254 250 262 71 75 76 69 58 46 40 34 31 28 27 26 25 24 25 26 24 20 17 3 338 308 285 273 265 255 240 230 223 216 213 218 220 217 211 205 205 207 205 207
192 221 248 255 267 276 268 260 249 106 78 66 59 52 45 39 33 29 26 26 24 23 22 22 22 20 17 16 14 4 347 319 296 284 269 259 247 236 226 217 219 221 218 215 210 211 208 207 209
245 250 192 228 249 255 262 266 266 207 131 77 60 51 42 35 31 27 24 23 23 21 18 19 21 19 15 12 13 10 6 352 330 309 287 273 263 247 235 225 222 223 219 215 214 215 210 209 210
228 217 230 245 245 254 260 260 312 123 123 97 67 48 33 25 19 17 17 17 19 18 17 15 15 14 10 8 7 7 7 4 357 341 318 298 281 262 244 233 225 223 221 218 218 219 210 210 211
259 246 241 246 248 248 258 260 96 125 134 133 116 75 42 24 13 8 8 9 12 13 12 11 9 9 4 1 1 4 4 3 1 355 342 324 301 279 259 246 235 229 225 222 222 224 218 211 210